Weather History for LHPA - January, 2013

Change the Weather History Date:

Wednesday, January 9, 2013

  Actual Average Record
Temperature  
Mean Temperature 34 °F -  
Max Temperature 37 °F - - ()
Min Temperature 32 °F - - ()
Degree Days  
Heating Degree Days 30    
Moisture  
Dew Point 34 °F    
Average Humidity 99    
Maximum Humidity 100    
Minimum Humidity 93    
Precipitation  
Precipitation 0.00 in - - ()
Sea Level Pressure  
Sea Level Pressure 30.15 in    
Wind  
Wind Speed 6 mph ()    
Max Wind Speed 13 mph    
Max Gust Speed 22 mph    
Visibility 1.9 miles    
Events      
T = Trace of Precipitation, MM = Missing Value Source: Averaged Metar Reports

Daily Weather History Graph

Daily Weather History Graph

Search for Another Location

Airport or City:

Trip Planner

Search our weather history database for the weather conditions in past years. The results will help you decide how hot, cold, wet, or windy it might be!

Date:

Astronomy

Jan. 09, 2013 Rise Set
Actual Time 7:35 AM CET 4:19 PM CET
Civil Twilight 7:00 AM CET 4:54 PM CET
Nautical Twilight 6:22 AM CET 5:32 PM CET
Astronomical Twilight 5:45 AM CET 6:09 PM CET
Moon 4:55 AM CET (1/9) 2:01 PM CET (1/9)
Length of Visible Light 9h 53m
Length of Day
8h 43m
Waning Crescent, 8% of the Moon is Illuminated
Jan 9
Waning Crescent
Jan 11
New
Jan 19
First Quarter
Jan 27
Full
Feb 3
Last Quarter

Hourly Weather History & Observations

Time (CET) Temp. Windchill Dew Point Humidity Pressure Visibility Wind Dir Wind Speed Gust Speed Precip Events Conditions
12:15 AM 32.0 °F 25.7 °F 32.0 °F 100% 30.18 in 1.2 mi SW 6.7 mph - N/A   Overcast
12:33 AM 32.0 °F 25.7 °F 32.0 °F 100% 30.18 in 0.9 mi SW 6.7 mph - N/A   Drizzle
12:45 AM 32.0 °F 25.7 °F 32.0 °F 100% 30.18 in 0.9 mi SW 6.7 mph - N/A   Light Drizzle
1:15 AM 32.0 °F 25.7 °F 32.0 °F 100% 30.18 in 0.9 mi SW 6.7 mph - N/A   Light Drizzle
1:45 AM 32.0 °F 25.7 °F 32.0 °F 100% 30.18 in 0.9 mi SW 6.7 mph - N/A   Light Drizzle
2:15 AM 32.0 °F 24.3 °F 32.0 °F 100% 30.18 in 0.9 mi SSW 8.9 mph - N/A   Light Drizzle
2:42 AM 32.0 °F 25.7 °F 32.0 °F 100% 30.18 in 1.2 mi SSW 6.7 mph - N/A   Overcast
2:45 AM 32.0 °F 25.7 °F 32.0 °F 100% 30.18 in 1.2 mi SSW 6.7 mph - N/A   Overcast
3:15 AM 32.0 °F 25.7 °F 32.0 °F 100% 30.18 in 1.2 mi SSW 6.7 mph - N/A   Overcast
3:45 AM 32.0 °F 25.7 °F 32.0 °F 100% 30.18 in 1.2 mi SSW 6.7 mph - N/A   Overcast
4:15 AM 32.0 °F 27.6 °F 32.0 °F 100% 30.18 in 1.2 mi SSW 4.5 mph - N/A   Overcast
4:45 AM 32.0 °F 27.6 °F 32.0 °F 100% 30.15 in 1.2 mi SSW 4.5 mph - N/A   Overcast
5:15 AM 32.0 °F 27.6 °F 32.0 °F 100% 30.15 in 1.2 mi SSW 4.5 mph - N/A   Overcast
5:45 AM - - - N/A% - 3.1 mi WSW 6.7 mph - N/A   Mostly Cloudy
6:15 AM 32.0 °F - 32.0 °F 100% 30.18 in 1.2 mi South 2.2 mph - N/A   Overcast
7:15 AM 32.0 °F - 32.0 °F 100% 30.18 in 1.2 mi SSE 2.2 mph - N/A   Overcast
8:15 AM 33.8 °F 29.7 °F 33.8 °F 100% 30.18 in 1.2 mi SW 4.5 mph - N/A   Overcast
8:45 AM - - - N/A% - 1.9 mi Variable 4.5 mph - N/A   Overcast
9:15 AM 33.8 °F - 33.8 °F 100% 30.18 in 1.2 mi South 2.2 mph - N/A   Overcast
9:45 AM 33.8 °F 29.7 °F 33.8 °F 100% 30.21 in 1.2 mi SSW 4.5 mph - N/A   Overcast
10:15 AM 33.8 °F 29.7 °F 33.8 °F 100% 30.21 in 1.2 mi SSW 4.5 mph - N/A   Overcast
10:45 AM 35.6 °F 31.8 °F 33.8 °F 93% 30.21 in 1.2 mi SSW 4.5 mph - N/A   Overcast
11:15 AM 35.6 °F 30.0 °F 33.8 °F 93% 30.21 in 1.2 mi SSW 6.7 mph - N/A   Overcast
11:45 AM - - - N/A% - 1.9 mi Variable 4.5 mph - N/A   Mostly Cloudy
12:15 PM 35.6 °F 31.8 °F 35.6 °F 100% 30.18 in 1.2 mi South 4.5 mph - N/A   Overcast
12:45 PM 35.6 °F 31.8 °F 35.6 °F 100% 30.18 in 1.2 mi South 4.5 mph - N/A   Overcast
1:36 PM 37.4 °F - 37.4 °F 100% 30.18 in 1.9 mi SSW 2.2 mph - N/A   Overcast
1:45 PM 37.4 °F 33.9 °F 37.4 °F 100% 30.18 in 1.9 mi SSW 4.5 mph - N/A   Overcast
2:15 PM 37.4 °F - 37.4 °F 100% 30.18 in 1.9 mi South 2.2 mph - N/A   Mostly Cloudy
2:45 PM - - - N/A% - 1.9 mi South 4.5 mph - N/A   Overcast
3:15 PM 37.4 °F - 37.4 °F 100% 30.15 in 2.5 mi SE 2.2 mph - N/A   Scattered Clouds
3:45 PM 35.6 °F - 35.6 °F 100% 30.15 in 2.5 mi South 2.2 mph - N/A   Scattered Clouds
4:15 PM 35.6 °F 31.8 °F 33.8 °F 93% 30.15 in 1.9 mi South 4.5 mph - N/A   Scattered Clouds
4:45 PM 35.6 °F 31.8 °F 35.6 °F 100% 30.15 in 1.9 mi South 4.5 mph - N/A   Mostly Cloudy
5:15 PM 35.6 °F 31.8 °F 35.6 °F 100% 30.15 in 1.9 mi WSW 4.5 mph - N/A   Mostly Cloudy
5:38 PM 35.6 °F 31.8 °F 35.6 °F 100% 30.15 in 1.2 mi SW 4.5 mph - N/A   Mostly Cloudy
5:45 PM - - - N/A% - 1.9 mi South 6.7 mph - N/A   Mostly Cloudy
6:15 PM 35.6 °F 30.0 °F 35.6 °F 100% 30.12 in 1.2 mi SSW 6.7 mph - N/A   Mostly Cloudy
6:41 PM 35.6 °F 28.7 °F 35.6 °F 100% 30.12 in 2.5 mi South 8.9 mph - N/A   Mostly Cloudy
6:45 PM 35.6 °F 30.0 °F 35.6 °F 100% 30.12 in 2.5 mi South 6.7 mph - N/A   Mostly Cloudy
7:15 PM 35.6 °F 28.7 °F 35.6 °F 100% 30.12 in 2.5 mi South 8.9 mph - N/A   Mostly Cloudy
7:45 PM 33.8 °F 26.5 °F 33.8 °F 100% 30.12 in 2.5 mi South 8.9 mph - N/A   Mostly Cloudy
8:15 PM 35.6 °F 28.7 °F 33.8 °F 93% 30.09 in 2.5 mi SSE 8.9 mph - N/A   Mostly Cloudy
8:45 PM - - - N/A% - 3.7 mi South 13.4 mph - N/A   Mostly Cloudy
9:15 PM 33.8 °F 24.5 °F 33.8 °F 100% 30.06 in 2.5 mi South 13.4 mph - N/A   Mostly Cloudy
9:45 PM 33.8 °F 25.4 °F 33.8 °F 100% 30.06 in 2.5 mi SSE 11.2 mph 22.4 mph N/A   Mostly Cloudy
10:15 PM 33.8 °F 24.5 °F 33.8 °F 100% 30.04 in 3.7 mi SSE 13.4 mph - N/A   Mostly Cloudy
10:45 PM 33.8 °F 25.4 °F 33.8 °F 100% 30.04 in 3.7 mi SSE 11.2 mph - N/A   Mostly Cloudy
11:15 PM 33.8 °F 24.5 °F 33.8 °F 100% 30.01 in 3.7 mi SSE 13.4 mph - N/A   Mostly Cloudy
11:35 PM 33.8 °F 27.9 °F 33.8 °F 100% 30.01 in 3.7 mi SSE 6.7 mph - N/A   Overcast
11:45 PM - - - N/A% - 3.7 mi North - - N/A   Mostly Cloudy